Regional Weather Roundup
Issued by NWS New Orleans/Baton Rouge, LA

Home | Current Version | Previous Version | Text Only | Print | Product List | Glossary On
Versions: 1 2 3 4 5 6 7 8 9 10 11 12 13 14 15 16 17 18 19 20 21 22 23 24 25 26 27 28 29 30 31 32 33 34 35 36 37 38 39 40 41 42 43 44 45 46 47 48 49 50
000
ASUS44 KLIX 241610
RWRLIX
NEW ORLEANS REGIONAL WEATHER ROUNDUP
NATIONAL WEATHER SERVICE NEW ORLEANS LA
1000 AM CST MON NOV 24 2014

NOTE: "FAIR" INDICATES FEW OR NO CLOUDS BELOW 12,000 FEET WITH NO
      SIGNIFICANT WEATHER AND/OR OBSTRUCTIONS TO VISIBILITY.
      SKY/WX - SKY CONDITION AND SIGNIFICANT WEATHER.
      TMP - AIR TEMPERATURE.     DP    - DEWPOINT TEMPERATURE.
      RH  - RELATIVE HUMIDITY.   PRES  - PRESSURE.
      HI  - HEAT INDEX.          WCI   - WIND CHILL INDEX.

*  THESE STATIONS ARE NOT NWS OR FAA STATIONS AND ARE NOT UNDER
   NWS QUALITY CONTROL.

LAZ038-040-048-061>063-065>067-069-241700-
SOUTHEAST LOUISIANA

CITY           SKY/WX    TMP DP  RH WIND       PRES   REMARKS
N.O. AUDUBON     N/A     70  62  74 MISG        N/A
N.O. INTL ARPT PTSUNNY   68  57  68 NW14G23   29.89R
N.O. LAKEFRONT SUNNY     62  59  90 W12       29.90R FOG
N.O. DOWNTOWN*   N/A     68  57  68 NW12      29.90R
SLIDELL        SUNNY     71  57  61 NW10      29.88R
BATON ROUGE    SUNNY     60  46  59 NW8       29.95R
BOOTHVILLE     SUNNY     70  66  87 NW12      29.89R
BELLE CHASSE   PTSUNNY   72  59  63 NW10G18   29.88R
BOGALUSA*        N/A     68  53  58 N12       29.92R
NEW ROADS*       N/A     57  45  64 NW12      29.97R
GONZALES*        N/A     63  53  69 NW13      29.93R
HAMMOND*       SUNNY     66  52  59 N10G17    29.93R
HOUMA*         MOSUNNY   70  59  68 NW14      29.90R
PORT FOURCHON* SUNNY     70  64  83 W10G17    29.92R

$$

MSZ070-080>082-241700-
SOUTHERN MISSISSIPPI

CITY           SKY/WX    TMP DP  RH WIND       PRES   REMARKS
MCCOMB         SUNNY     58  45  62 NW10      29.93R
GULFPORT       SUNNY     73  61  65 W9        29.86R
BILOXI         SUNNY     74  63  69 CALM      29.86R
PASCAGOULA     SUNNY     74  62  66 W8        29.86R
STENNIS ARPT*  MOSUNNY   72  55  56 NW8       29.87R

$$

COASTAL OBSERVATIONS
LAKE AND NEARSHORE STATIONS

STATION/POSITION TIME  TEMP    WIND        PRES    WAVE
                       AIR SEA DIR/SP/G            HT/PER
                 (UTC) (F)     (DEG/KT/KT) (MB)    (FT/S)
PASCAGOULA       1600   64     240/  5/  8 1010.9
WAVELAND YACHT   1600   70     320/ 12/ 14 1010.5
GRAND ISLE       1600   65 65  280/  4/  4 1012.3
SOUTHWEST PASS   1600   69                 1012.6
NEW CANAL        1600   63 56  290/  5/ 10 1012.6
SHELL BEACH      1600   65 55  310/ 12/ 12 1011.5

OFFSHORE STATIONS

STATION/POSITION TIME  TEMP    WIND        PRES    WAVE
                       AIR SEA DIR/SP/G            HT/PER
                 (UTC) (F)     (DEG/KT/KT) (MB)    (FT/S)
64 S DAUPHIN ISL 1522   73 72  280/ 12/ 14 1012.5    6/ 7

$$



USA.gov is the U.S. government's official web portal to all federal, state and local government web resources and services.